Flag for U.S.A. Weather past 2 weeks in Columbus, Georgia, U.S.A.

Now
53 °F

Light rain. Overcast.


Feels Like: 53 °F
Forecast: 53 / 68 °F
Wind: 3 mph from North

Location: Columbus Metropolitan Airport

Current Time: Dec 28, 2014 at 12:25:16 AM

Latest Report: Dec 27, 2014 at 11:51 PM


Visibility: 10 mi

Pressure: 30.15 "Hg

Humidity: 93%

Dew point: 51 °F

Location of ColumbusLocation

Historic Weather in Columbus — Graph

°F

Columbus temperature yesterday

Maximum temperature yesterday: 64 °F (at 1:51 PM)
Minimum temperature yesterday: 37 °F (at 3:51 AM)
Average temperature yesterday: 51 °F

Past Weeks' High & Low Weather Summary

 TemperatureHumidityPressure
High66 °F (Dec 24, 12:51 PM)100% (Dec 21, 10:04 PM)30.36 "Hg (Dec 21, 10:04 PM)
Low32 °F (Dec 15, 5:51 AM)17% (Dec 13, 2:51 PM)29.63 "Hg (Dec 24, 8:51 AM)
Average50 °F74%30.09 "Hg
* Reported Dec 12 9:51 PM — Dec 27 9:51 PM, Columbus, Weather by CustomWeather, © 2014

Note: Actual official high and low records may vary slightly from our data, if they occured in-between our weather recording intervals... More about our weather records

Advertising

Columbus weather history for previous 24 hours

 ConditionsComfort  
Time TempWeatherWind HumidityBarometerVisibility
9:51 PM
Dec 27
53 °FLight rain. Overcast.5 mph93%30.25 "Hg7 mi
8:51 PM54 °FRain. Overcast.7 mph93%30.21 "Hg7 mi
7:51 PM55 °FLight rain. Passing clouds.No wind93%30.22 "Hg10 mi
6:51 PM56 °FLight rain. Mostly cloudy.6 mph90%30.24 "Hg9 mi
5:51 PM58 °FLight rain. Partly cloudy.6 mph90%30.24 "Hg10 mi
4:51 PM61 °FLight rain. Broken clouds.6 mph72%30.24 "Hg10 mi
3:51 PM63 °FOvercast.5 mph60%30.18 "Hg10 mi
2:51 PM63 °FPartly sunny.3 mph60%30.19 "Hg10 mi
1:51 PM64 °FScattered clouds.5 mph58%30.20 "Hg10 mi
12:51 PM62 °FScattered clouds.3 mph56%30.24 "Hg10 mi
11:51 AM59 °FScattered clouds.No wind56%30.30 "Hg10 mi
10:51 AM54 °FPartly sunny.No wind62%30.34 "Hg10 mi
9:51 AM51 °FScattered clouds.9 mph63%30.32 "Hg10 mi
8:51 AM45 °FSunny.No wind76%30.33 "Hg10 mi
7:51 AM42 °FSunny.No wind79%30.30 "Hg10 mi
6:51 AM41 °FClear.6 mph82%30.25 "Hg10 mi
5:51 AM41 °FClear.5 mph82%30.24 "Hg10 mi
4:51 AM38 °FClear.3 mph93%30.24 "Hg10 mi
3:51 AM37 °FClear.No wind93%30.26 "Hg10 mi
2:51 AM40 °FClear.No wind89%30.27 "Hg10 mi
1:51 AM41 °FClear.No wind86%30.26 "Hg10 mi
12:51 AM41 °FClear.No wind86%30.27 "Hg10 mi
Weather by CustomWeather, © 2014

See weather overviewHow to use our weather pages